| time (UTC) | temp C | wind direction | speed KPH | gust KPH | rain 1hr cm | rain 24hr cm | rain mn cm | humidity % | barometer mb |
| 20260502170213 | 7 | 9 | 0.0 | 0.0 | 0.00 | 0.00 | 0.00 | 53 | 1011.9 |
| 20260502164200 | 7 | 36 | 4.8 | 12.9 | 0.00 | 0.00 | 0.00 | 50 | 1012.1 |
| 20260502163656 | 8 | 137 | 0.0 | 1.6 | 0.00 | 0.00 | 0.00 | 49 | 1011.9 |
| 20260502163153 | 8 | 276 | 1.6 | 4.8 | 0.00 | 0.00 | 0.00 | 49 | 1011.8 |
| 20260502162649 | 8 | 329 | 8.0 | 17.7 | 0.00 | 0.00 | 0.00 | 46 | 1012.2 |
| 20260502162147 | 7 | 213 | 3.2 | 9.7 | 0.00 | 0.00 | 0.00 | 47 | 1011.9 |
| 20260502161644 | 8 | 327 | 4.8 | 12.9 | 0.00 | 0.00 | 0.00 | 49 | 1011.9 |
| 20260502161140 | 7 | 319 | 12.9 | 17.7 | 0.00 | 0.00 | 0.00 | 45 | 1012.2 |
| 20260502160638 | 7 | 348 | 11.3 | 17.7 | 0.00 | 0.00 | 0.00 | 46 | 1012.4 |
| 20260502160137 | 7 | 323 | 4.8 | 11.3 | 0.00 | 0.00 | 0.00 | 51 | 1012.3 |
| 20260502152051 | 7 | 89 | 14.5 | 20.9 | 0.00 | 0.00 | 0.00 | 51 | 1012.2 |
| 20260502151548 | 7 | 352 | 20.9 | 24.1 | 0.00 | 0.00 | 0.00 | 50 | 1012.2 |
| 20260502151045 | 7 | 349 | 4.8 | 12.9 | 0.00 | 0.00 | 0.00 | 51 | 1012.2 |
| 20260502150543 | 7 | 294 | 4.8 | 11.3 | 0.00 | 0.00 | 0.00 | 52 | 1012.1 |
| 20260502130428 | 3 | 325 | 0.0 | 1.6 | 0.00 | 0.00 | 0.00 | 74 | 1012.1 |
| 20260502123410 | 3 | 35 | 0.0 | 0.0 | 0.00 | 0.00 | 0.00 | 80 | 1012.1 |
| 20260502122908 | 3 | 313 | 0.0 | 0.0 | 0.00 | 0.00 | 0.00 | 81 | 1011.7 |
| 20260502122404 | 3 | 333 | 0.0 | 0.0 | 0.00 | 0.00 | 0.00 | 81 | 1012.1 |
| 20260502121902 | 2 | 355 | 0.0 | 0.0 | 0.00 | 0.00 | 0.00 | 83 | 1012.2 |
| 20260502121358 | 2 | 307 | 0.0 | 0.0 | 0.00 | 0.00 | 0.00 | 84 | 1011.9 |
| 20260502120856 | 2 | 70 | 0.0 | 0.0 | 0.00 | 0.00 | 0.00 | 84 | 1012.1 |
| 20260502120352 | 2 | 355 | 0.0 | 0.0 | 0.00 | 0.00 | 0.00 | 86 | 1012.1 |
| 20260502115849 | 2 | 19 | 1.6 | 3.2 | 0.00 | 0.00 | 0.00 | 87 | 1011.8 |
| 20260502115347 | 2 | 334 | 0.0 | 0.0 | 0.00 | 0.00 | 0.00 | 87 | 1011.8 |
| 20260502114837 | 2 | 358 | 0.0 | 0.0 | 0.00 | 0.00 | 0.00 | 88 | 1011.8 |
| 20260502114334 | 2 | 52 | 0.0 | 0.0 | 0.00 | 0.00 | 0.00 | 88 | 1011.7 |
| 20260502113831 | 2 | 333 | 0.0 | 0.0 | 0.00 | 0.00 | 0.00 | 89 | 1011.7 |
| 20260502113328 | 2 | 72 | 0.0 | 0.0 | 0.00 | 0.00 | 0.00 | 89 | 1011.7 |
| 20260502112827 | 2 | 304 | 0.0 | 0.0 | 0.00 | 0.00 | 0.00 | 90 | 1012.1 |
| 20260502112324 | 1 | 15 | 0.0 | 0.0 | 0.00 | 0.00 | 0.00 | 91 | 1011.7 |
| 20260502111821 | 1 | 349 | 0.0 | 0.0 | 0.00 | 0.00 | 0.00 | 91 | 1011.6 |
| 20260502111319 | 1 | 332 | 0.0 | 0.0 | 0.00 | 0.00 | 0.00 | 92 | 1011.8 |
| 20260502110816 | 1 | 317 | 0.0 | 0.0 | 0.00 | 0.00 | 0.00 | 92 | 1011.7 |
| 20260502110314 | 1 | 340 | 0.0 | 0.0 | 0.00 | 0.00 | 0.00 | 92 | 1011.8 |
| 20260502105812 | 1 | 303 | 0.0 | 0.0 | 0.00 | 0.00 | 0.00 | 91 | 1011.8 |
| 20260502105308 | 1 | 313 | 0.0 | 0.0 | 0.00 | 0.00 | 0.00 | 91 | 1011.5 |
| 20260502104806 | 1 | 306 | 0.0 | 0.0 | 0.00 | 0.00 | 0.00 | 91 | 1011.6 |
| 20260502104303 | 1 | 60 | 0.0 | 0.0 | 0.00 | 0.00 | 0.00 | 91 | 1011.4 |
| 20260502103800 | 1 | 72 | 0.0 | 0.0 | 0.00 | 0.00 | 0.00 | 90 | 1011.5 |
| 20260502103257 | 1 | 3 | 0.0 | 0.0 | 0.00 | 0.00 | 0.00 | 90 | 1011.6 |
| 20260502102754 | 1 | 320 | 0.0 | 0.0 | 0.00 | 0.00 | 0.00 | 90 | 1011.6 |
| 20260502102250 | 1 | 35 | 0.0 | 0.0 | 0.00 | 0.00 | 0.00 | 89 | 1011.8 |
| 20260502101749 | 1 | 353 | 0.0 | 0.0 | 0.00 | 0.00 | 0.00 | 89 | 1012.1 |
| 20260502101246 | 1 | 48 | 0.0 | 0.0 | 0.00 | 0.00 | 0.00 | 89 | 1011.7 |
| 20260502100744 | 1 | 49 | 0.0 | 0.0 | 0.00 | 0.00 | 0.00 | 88 | 1011.9 |
| 20260502100238 | 1 | 12 | 0.0 | 0.0 | 0.00 | 0.00 | 0.00 | 88 | 1011.7 |
| 20260502091211 | 2 | 355 | 0.0 | 0.0 | 0.00 | 0.00 | 0.00 | 84 | 1012.1 |
| 20260502090708 | 2 | 280 | 0.0 | 0.0 | 0.00 | 0.00 | 0.00 | 83 | 1011.8 |
| 20260502090200 | 2 | 327 | 0.0 | 0.0 | 0.00 | 0.00 | 0.00 | 82 | 1011.9 |
| 20260502071055 | 3 | 17 | 0.0 | 1.6 | 0.00 | 0.00 | 0.00 | 72 | 1011.8 |
| 20260502070553 | 3 | 230 | 0.0 | 0.0 | 0.00 | 0.00 | 0.00 | 71 | 1011.7 |
| 20260502070050 | 3 | 4 | 0.0 | 3.2 | 0.00 | 0.00 | 0.00 | 71 | 1012.1 |
| 20260502065549 | 3 | 46 | 0.0 | 0.0 | 0.00 | 0.00 | 0.00 | 70 | 1011.9 |
| 20260502065046 | 4 | 67 | 0.0 | 0.0 | 0.00 | 0.00 | 0.00 | 70 | 1012.1 |
| 20260502064544 | 4 | 336 | 0.0 | 0.0 | 0.00 | 0.00 | 0.00 | 70 | 1012.1 |
| 20260502064041 | 4 | 281 | 0.0 | 0.0 | 0.00 | 0.00 | 0.00 | 69 | 1012.1 |
| 20260502063539 | 4 | 38 | 0.0 | 0.0 | 0.00 | 0.00 | 0.00 | 69 | 1012.1 |
| 20260502063036 | 4 | 349 | 0.0 | 0.0 | 0.00 | 0.00 | 0.00 | 69 | 1012.2 |
| 20260502062533 | 4 | 352 | 0.0 | 0.0 | 0.00 | 0.00 | 0.00 | 68 | 1012.3 |
| 20260502062032 | 4 | 330 | 0.0 | 0.0 | 0.00 | 0.00 | 0.00 | 68 | 1012.4 |
| 20260502061530 | 4 | 16 | 3.2 | 8.0 | 0.00 | 0.00 | 0.00 | 68 | 1012.4 |
| 20260502061026 | 4 | 336 | 3.2 | 12.9 | 0.00 | 0.00 | 0.00 | 67 | 1012.5 |
| 20260502060521 | 4 | 52 | 0.0 | 0.0 | 0.00 | 0.00 | 0.00 | 67 | 1012.6 |
| 20260502060018 | 4 | 355 | 0.0 | 0.0 | 0.00 | 0.00 | 0.00 | 67 | 1012.5 |
| 20260502055516 | 4 | 8 | 3.2 | 9.7 | 0.00 | 0.00 | 0.00 | 67 | 1012.5 |
| 20260502055015 | 4 | 238 | 0.0 | 0.0 | 0.00 | 0.00 | 0.00 | 67 | 1012.2 |
| 20260502054513 | 4 | 19 | 1.6 | 9.7 | 0.00 | 0.00 | 0.00 | 67 | 1012.2 |
| 20260502054010 | 5 | 275 | 1.6 | 8.0 | 0.00 | 0.00 | 0.00 | 68 | 1012.2 |
| 20260502053506 | 5 | 196 | 1.6 | 8.0 | 0.00 | 0.00 | 0.00 | 69 | 1012.3 |
| 20260502053005 | 5 | 345 | 8.0 | 17.7 | 0.00 | 0.00 | 0.00 | 72 | 1012.2 |
| 20260502052502 | 5 | 358 | 0.0 | 0.0 | 0.00 | 0.00 | 0.00 | 73 | 1012.3 |
| 20260502052000 | 5 | 21 | 6.4 | 14.5 | 0.00 | 0.00 | 0.00 | 73 | 1012.5 |
| 20260502051458 | 5 | 32 | 6.4 | 14.5 | 0.00 | 0.00 | 0.00 | 75 | 1012.3 |
| 20260502050955 | 5 | 351 | 3.2 | 9.7 | 0.00 | 0.00 | 0.00 | 77 | 1012.3 |
| 20260502050451 | 5 | 85 | 3.2 | 12.9 | 0.00 | 0.00 | 0.00 | 79 | 1012.3 |
| 20260502045949 | 5 | 231 | 0.0 | 1.6 | 0.00 | 0.00 | 0.00 | 81 | 1012.2 |
| 20260502045445 | 5 | 348 | 1.6 | 8.0 | 0.00 | 0.00 | 0.00 | 81 | 1012.7 |
| 20260502044942 | 5 | 2 | 1.6 | 4.8 | 0.00 | 0.00 | 0.00 | 81 | 1012.7 |
| 20260502044438 | 5 | 298 | 6.4 | 11.3 | 0.00 | 0.00 | 0.00 | 81 | 1012.9 |
| 20260502043935 | 5 | 357 | 8.0 | 16.1 | 0.00 | 0.00 | 0.00 | 81 | 1012.7 |
| 20260502043433 | 5 | 41 | 11.3 | 20.9 | 0.00 | 0.00 | 0.00 | 81 | 1012.6 |
| 20260502042932 | 5 | 274 | 1.6 | 11.3 | 0.00 | 0.00 | 0.00 | 82 | 1012.8 |
| 20260502042430 | 6 | 318 | 0.0 | 0.0 | 0.00 | 0.00 | 0.00 | 82 | 1012.3 |
| 20260502041927 | 6 | 353 | 0.0 | 1.6 | 0.00 | 0.00 | 0.00 | 82 | 1012.6 |
| 20260502041425 | 6 | 36 | 0.0 | 0.0 | 0.00 | 0.00 | 0.00 | 82 | 1012.4 |
| 20260502040921 | 6 | 2 | 9.7 | 16.1 | 0.00 | 0.00 | 0.00 | 81 | 1012.4 |
| 20260502040418 | 6 | 284 | 0.0 | 1.6 | 0.00 | 0.00 | 0.00 | 81 | 1012.4 |
| 20260502035914 | 6 | 344 | 0.0 | 0.0 | 0.00 | 0.00 | 0.00 | 81 | 1012.4 |
| 20260502035411 | 6 | 314 | 0.0 | 0.0 | 0.00 | 0.00 | 0.00 | 81 | 1012.7 |
| 20260502034908 | 6 | 359 | 0.0 | 0.0 | 0.00 | 0.00 | 0.00 | 80 | 1012.6 |
| 20260502034407 | 6 | 27 | 12.9 | 22.5 | 0.00 | 0.00 | 0.00 | 80 | 1012.6 |
| 20260502033905 | 6 | 334 | 4.8 | 12.9 | 0.00 | 0.00 | 0.00 | 80 | 1012.5 |
| 20260502033402 | 6 | 252 | 3.2 | 8.0 | 0.00 | 0.00 | 0.00 | 80 | 1012.6 |
| 20260502032859 | 6 | 28 | 0.0 | 0.0 | 0.00 | 0.00 | 0.00 | 79 | 1012.5 |
| 20260502032355 | 6 | 341 | 8.0 | 12.9 | 0.00 | 0.00 | 0.00 | 79 | 1012.6 |
| 20260502031853 | 6 | 327 | 9.7 | 17.7 | 0.00 | 0.00 | 0.00 | 78 | 1012.7 |
| 20260502031351 | 6 | 351 | 3.2 | 12.9 | 0.00 | 0.00 | 0.00 | 78 | 1012.7 |
| 20260502030848 | 6 | 45 | 1.6 | 4.8 | 0.00 | 0.00 | 0.00 | 77 | 1012.7 |
| 20260502030347 | 6 | 53 | 0.0 | 1.6 | 0.00 | 0.00 | 0.00 | 77 | 1012.6 |
| 20260502025844 | 6 | 330 | 4.8 | 12.9 | 0.00 | 0.00 | 0.00 | 76 | 1012.9 |
| 20260502025341 | 6 | 287 | 1.6 | 4.8 | 0.00 | 0.00 | 0.00 | 77 | 1012.5 |
| 20260502024839 | 6 | 14 | 12.9 | 14.5 | 0.00 | 0.00 | 0.00 | 77 | 1012.6 |
| 20260502024337 | 6 | 330 | 4.8 | 11.3 | 0.00 | 0.00 | 0.00 | 77 | 1012.5 |
| 20260502023834 | 6 | 70 | 0.0 | 0.0 | 0.00 | 0.00 | 0.00 | 77 | 1012.3 |
| 20260502023332 | 6 | 328 | 6.4 | 16.1 | 0.00 | 0.00 | 0.00 | 77 | 1012.3 |
| 20260502022830 | 6 | 327 | 0.0 | 0.0 | 0.00 | 0.00 | 0.00 | 77 | 1012.1 |
| 20260502022326 | 6 | 2 | 1.6 | 11.3 | 0.00 | 0.00 | 0.00 | 77 | 1011.8 |
| 20260502021822 | 6 | 358 | 11.3 | 16.1 | 0.00 | 0.00 | 0.00 | 76 | 1011.9 |
| 20260502021320 | 6 | 283 | 14.5 | 24.1 | 0.00 | 0.00 | 0.00 | 75 | 1011.8 |
| 20260502020817 | 7 | 154 | 3.2 | 12.9 | 0.00 | 0.00 | 0.00 | 76 | 1011.8 |
| 20260502020315 | 7 | 357 | 9.7 | 20.9 | 0.00 | 0.00 | 0.00 | 75 | 1011.9 |
| 20260502015811 | 7 | 333 | 20.9 | 27.4 | 0.00 | 0.00 | 0.00 | 75 | 1011.8 |
| 20260502015308 | 7 | 285 | 4.8 | 17.7 | 0.00 | 0.00 | 0.00 | 75 | 1011.5 |
| 20260502014806 | 7 | 5 | 16.1 | 24.1 | 0.00 | 0.00 | 0.00 | 76 | 1011.0 |
| 20260502014302 | 7 | 61 | 8.0 | 14.5 | 0.00 | 0.00 | 0.00 | 76 | 1011.1 |
| 20260502013758 | 7 | 300 | 9.7 | 24.1 | 0.00 | 0.00 | 0.00 | 76 | 1011.1 |
| 20260502013254 | 7 | 77 | 9.7 | 22.5 | 0.00 | 0.00 | 0.00 | 76 | 1011.0 |
| 20260502012751 | 7 | 24 | 17.7 | 25.7 | 0.00 | 0.00 | 0.00 | 75 | 1010.8 |
| 20260502012249 | 7 | 11 | 17.7 | 22.5 | 0.00 | 0.00 | 0.00 | 76 | 1010.6 |
| 20260502011746 | 7 | 353 | 0.0 | 3.2 | 0.00 | 0.00 | 0.00 | 76 | 1011.0 |
| 20260502011242 | 7 | 356 | 4.8 | 14.5 | 0.00 | 0.00 | 0.00 | 77 | 1010.7 |
| 20260502010740 | 8 | 7 | 9.7 | 17.7 | 0.00 | 0.00 | 0.00 | 77 | 1010.8 |
| 20260502010235 | 8 | 88 | 17.7 | 27.4 | 0.00 | 0.00 | 0.00 | 76 | 1010.6 |
| 20260502005733 | 8 | 40 | 8.0 | 20.9 | 0.00 | 0.00 | 0.00 | 77 | 1010.7 |
| 20260502005231 | 8 | 75 | 11.3 | 22.5 | 0.00 | 0.00 | 0.00 | 77 | 1010.7 |
| 20260502004727 | 8 | 45 | 0.0 | 0.0 | 0.00 | 0.00 | 0.00 | 78 | 1010.5 |
| 20260502004223 | 8 | 267 | 11.3 | 17.7 | 0.00 | 0.00 | 0.00 | 78 | 1010.5 |
| 20260502003721 | 8 | 43 | 14.5 | 22.5 | 0.00 | 0.00 | 0.00 | 78 | 1010.6 |
| 20260502003219 | 8 | 37 | 1.6 | 8.0 | 0.00 | 0.00 | 0.00 | 78 | 1010.3 |
| 20260502002714 | 8 | 358 | 3.2 | 11.3 | 0.00 | 0.00 | 0.00 | 77 | 1010.4 |
| 20260502002212 | 8 | 8 | 8.0 | 20.9 | 0.00 | 0.00 | 0.00 | 77 | 1010.3 |
| 20260502001709 | 8 | 292 | 0.0 | 1.6 | 0.00 | 0.00 | 0.00 | 77 | 1010.3 |
| 20260502001207 | 8 | 359 | 8.0 | 14.5 | 0.00 | 0.00 | 0.00 | 76 | 1010.0 |
| 20260502000704 | 8 | 338 | 17.7 | 22.5 | 0.00 | 0.00 | 0.00 | 75 | 1010.0 |
| 20260502000203 | 8 | 331 | 8.0 | 22.5 | 0.00 | 0.00 | 0.00 | 74 | 1009.5 |
| 20260501235658 | 8 | 343 | 9.7 | 16.1 | 0.00 | 0.00 | 0.00 | 73 | 1009.9 |
| 20260501235154 | 9 | 340 | 3.2 | 9.7 | 0.00 | 0.00 | 0.00 | 72 | 1009.8 |
| 20260501234649 | 9 | 10 | 8.0 | 20.9 | 0.00 | 0.00 | 0.00 | 71 | 1009.3 |
| 20260501234147 | 10 | 13 | 4.8 | 14.5 | 0.00 | 0.00 | 0.00 | 70 | 1009.5 |
| 20260501233645 | 10 | 300 | 14.5 | 22.5 | 0.00 | 0.00 | 0.00 | 68 | 1009.5 |
| 20260501233142 | 10 | 36 | 14.5 | 22.5 | 0.00 | 0.00 | 0.00 | 66 | 1009.4 |
| 20260501232638 | 11 | 3 | 1.6 | 17.7 | 0.00 | 0.00 | 0.00 | 63 | 1009.0 |
| 20260501232136 | 11 | 350 | 11.3 | 25.7 | 0.00 | 0.00 | 0.00 | 59 | 1009.2 |
| 20260501231633 | 12 | 50 | 3.2 | 9.7 | 0.00 | 0.00 | 0.00 | 54 | 1009.0 |
| 20260501231131 | 13 | 323 | 3.2 | 9.7 | 0.00 | 0.00 | 0.00 | 48 | 1008.8 |
| 20260501230629 | 13 | 277 | 3.2 | 9.7 | 0.00 | 0.00 | 0.00 | 47 | 1008.9 |
| 20260501230127 | 13 | 325 | 9.7 | 14.5 | 0.00 | 0.00 | 0.00 | 45 | 1008.9 |
| 20260501225624 | 13 | 118 | 1.6 | 8.0 | 0.00 | 0.00 | 0.00 | 45 | 1008.8 |
| 20260501225120 | 13 | 310 | 3.2 | 4.8 | 0.00 | 0.00 | 0.00 | 44 | 1008.8 |
| 20260501224618 | 14 | 307 | 0.0 | 0.0 | 0.00 | 0.00 | 0.00 | 42 | 1008.9 |
| 20260501224115 | 14 | 274 | 0.0 | 3.2 | 0.00 | 0.00 | 0.00 | 41 | 1009.0 |
| 20260501223611 | 14 | 312 | 11.3 | 14.5 | 0.00 | 0.00 | 0.00 | 40 | 1008.9 |
| 20260501223108 | 14 | 65 | 3.2 | 12.9 | 0.00 | 0.00 | 0.00 | 41 | 1008.9 |
| 20260501222604 | 15 | 319 | 6.4 | 14.5 | 0.00 | 0.00 | 0.00 | 40 | 1009.0 |
| 20260501222101 | 15 | 298 | 14.5 | 22.5 | 0.00 | 0.00 | 0.00 | 39 | 1008.7 |
| 20260501221557 | 15 | 224 | 4.8 | 11.3 | 0.00 | 0.00 | 0.00 | 39 | 1008.7 |
| 20260501221055 | 15 | 71 | 6.4 | 16.1 | 0.00 | 0.00 | 0.00 | 38 | 1008.6 |
| 20260501220553 | 15 | 42 | 3.2 | 8.0 | 0.00 | 0.00 | 0.00 | 38 | 1008.9 |
| 20260501220049 | 15 | 34 | 9.7 | 17.7 | 0.00 | 0.00 | 0.00 | 36 | 1008.8 |
| 20260501215545 | 15 | 172 | 8.0 | 16.1 | 0.00 | 0.00 | 0.00 | 37 | 1009.0 |
| 20260501215041 | 15 | 264 | 11.3 | 25.7 | 0.00 | 0.00 | 0.00 | 36 | 1008.8 |
| 20260501214536 | 15 | 222 | 0.0 | 1.6 | 0.00 | 0.00 | 0.00 | 37 | 1008.7 |
| 20260501214032 | 15 | 173 | 6.4 | 12.9 | 0.00 | 0.00 | 0.00 | 35 | 1008.8 |
| 20260501213530 | 15 | 333 | 12.9 | 17.7 | 0.00 | 0.00 | 0.00 | 37 | 1008.9 |
| 20260501213025 | 15 | 2 | 3.2 | 11.3 | 0.00 | 0.00 | 0.00 | 36 | 1008.7 |
| 20260501212522 | 15 | 288 | 11.3 | 16.1 | 0.00 | 0.00 | 0.00 | 36 | 1008.8 |
| 20260501212019 | 15 | 310 | 12.9 | 24.1 | 0.00 | 0.00 | 0.00 | 36 | 1009.0 |
| 20260501211516 | 15 | 51 | 9.7 | 20.9 | 0.00 | 0.00 | 0.00 | 36 | 1008.8 |
| 20260501211014 | 15 | 42 | 9.7 | 14.5 | 0.00 | 0.00 | 0.00 | 35 | 1008.8 |
| 20260501210510 | 15 | 342 | 1.6 | 8.0 | 0.00 | 0.00 | 0.00 | 35 | 1008.8 |
| 20260501210007 | 15 | 304 | 0.0 | 3.2 | 0.00 | 0.00 | 0.00 | 36 | 1008.9 |
| 20260501205503 | 15 | 300 | 12.9 | 20.9 | 0.00 | 0.00 | 0.00 | 33 | 1009.1 |
| 20260501205001 | 16 | 196 | 14.5 | 17.7 | 0.00 | 0.00 | 0.00 | 33 | 1009.2 |
| 20260501204456 | 16 | 309 | 4.8 | 12.9 | 0.00 | 0.00 | 0.00 | 34 | 1009.1 |
| 20260501203953 | 16 | 313 | 12.9 | 17.7 | 0.00 | 0.00 | 0.00 | 33 | 1008.9 |
| 20260501203450 | 16 | 308 | 11.3 | 17.7 | 0.00 | 0.00 | 0.00 | 33 | 1009.2 |
| 20260501202948 | 15 | 305 | 19.3 | 25.7 | 0.00 | 0.00 | 0.00 | 32 | 1009.0 |
| 20260501202444 | 16 | 257 | 1.6 | 8.0 | 0.00 | 0.00 | 0.00 | 32 | 1008.8 |
| 20260501201940 | 16 | 330 | 12.9 | 17.7 | 0.00 | 0.00 | 0.00 | 32 | 1008.9 |
| 20260501201437 | 16 | 307 | 6.4 | 17.7 | 0.00 | 0.00 | 0.00 | 33 | 1008.8 |
| 20260501200934 | 15 | 302 | 11.3 | 22.5 | 0.00 | 0.00 | 0.00 | 32 | 1008.9 |
| 20260501200431 | 16 | 300 | 9.7 | 12.9 | 0.00 | 0.00 | 0.00 | 32 | 1008.9 |
| 20260501195929 | 16 | 281 | 8.0 | 17.7 | 0.00 | 0.00 | 0.00 | 31 | 1008.9 |
| 20260501195426 | 16 | 36 | 9.7 | 17.7 | 0.00 | 0.00 | 0.00 | 31 | 1009.1 |
| 20260501194921 | 15 | 308 | 6.4 | 14.5 | 0.00 | 0.00 | 0.00 | 32 | 1009.0 |
| 20260501194417 | 16 | 271 | 17.7 | 22.5 | 0.00 | 0.00 | 0.00 | 29 | 1009.1 |
| 20260501193913 | 16 | 320 | 8.0 | 17.7 | 0.00 | 0.00 | 0.00 | 29 | 1009.0 |
| 20260501193412 | 16 | 289 | 29.0 | 33.8 | 0.00 | 0.00 | 0.00 | 29 | 1008.9 |
| 20260501192909 | 16 | 177 | 0.0 | 0.0 | 0.00 | 0.00 | 0.00 | 33 | 1009.2 |
| 20260501192406 | 16 | 317 | 8.0 | 11.3 | 0.00 | 0.00 | 0.00 | 31 | 1009.3 |
| 20260501191903 | 16 | 284 | 3.2 | 11.3 | 0.00 | 0.00 | 0.00 | 29 | 1009.2 |
| 20260501191400 | 16 | 22 | 14.5 | 25.7 | 0.00 | 0.00 | 0.00 | 31 | 1009.6 |
| 20260501190857 | 16 | 275 | 1.6 | 8.0 | 0.00 | 0.00 | 0.00 | 29 | 1009.3 |
| 20260501190353 | 16 | 272 | 16.1 | 25.7 | 0.00 | 0.00 | 0.00 | 31 | 1009.5 |
| 20260501185848 | 16 | 293 | 9.7 | 16.1 | 0.00 | 0.00 | 0.00 | 31 | 1009.2 |
| 20260501185344 | 16 | 226 | 3.2 | 9.7 | 0.00 | 0.00 | 0.00 | 33 | 1009.5 |
| 20260501184840 | 15 | 275 | 19.3 | 25.7 | 0.00 | 0.00 | 0.00 | 29 | 1009.5 |
| 20260501184336 | 16 | 240 | 22.5 | 27.4 | 0.00 | 0.00 | 0.00 | 27 | 1009.8 |
| 20260501183832 | 16 | 246 | 0.0 | 1.6 | 0.00 | 0.00 | 0.00 | 31 | 1009.5 |
| 20260501183330 | 16 | 313 | 14.5 | 20.9 | 0.00 | 0.00 | 0.00 | 31 | 1009.3 |
| 20260501182826 | 15 | 215 | 4.8 | 8.0 | 0.00 | 0.00 | 0.00 | 29 | 1009.3 |
| 20260501182323 | 15 | 293 | 6.4 | 12.9 | 0.00 | 0.00 | 0.00 | 30 | 1009.4 |
| 20260501181819 | 16 | 261 | 11.3 | 16.1 | 0.00 | 0.00 | 0.00 | 28 | 1009.6 |
| 20260501181317 | 15 | 286 | 0.0 | 0.0 | 0.00 | 0.00 | 0.00 | 31 | 1009.5 |
| 20260501180814 | 15 | 248 | 0.0 | 0.0 | 0.00 | 0.00 | 0.00 | 32 | 1009.5 |
| 20260501180310 | 15 | 288 | 4.8 | 22.5 | 0.00 | 0.00 | 0.00 | 29 | 1009.8 |
| 20260501175808 | 15 | 167 | 6.4 | 9.7 | 0.00 | 0.00 | 0.00 | 28 | 1009.5 |
| 20260501175306 | 15 | 246 | 17.7 | 29.0 | 0.00 | 0.00 | 0.00 | 26 | 1010.0 |
| 20260501174800 | 15 | 278 | 19.3 | 27.4 | 0.00 | 0.00 | 0.00 | 26 | 1009.8 |
| 20260501174258 | 15 | 303 | 11.3 | 16.1 | 0.00 | 0.00 | 0.00 | 25 | 1009.9 |
| 20260501173756 | 15 | 218 | 3.2 | 12.9 | 0.00 | 0.00 | 0.00 | 27 | 1009.8 |
| 20260501173253 | 15 | 306 | 3.2 | 11.3 | 0.00 | 0.00 | 0.00 | 28 | 1010.2 |
| 20260501172748 | 16 | 298 | 19.3 | 22.5 | 0.00 | 0.00 | 0.00 | 28 | 1009.9 |
| 20260501172244 | 15 | 244 | 6.4 | 11.3 | 0.00 | 0.00 | 0.00 | 28 | 1009.9 |
| 20260501171739 | 15 | 230 | 1.6 | 4.8 | 0.00 | 0.00 | 0.00 | 30 | 1009.9 |